Flag for Germany Weather past 2 weeks in Heide, Schleswig-Holstein, Germany

Now
57 °F

Refreshingly cool.


Feels Like: 55 °F
Forecast: 40 / 59 °F
Wind: 10 mph from North

Location: Hohn

Current Time: May 23, 2015 at 2:24:45 PM

Latest Report: May 23, 2015 at 1:20 PM


Visibility: 3 mi

Pressure: 30.15 "Hg

Humidity: 55%

Dew point: 41 °F

Location of HeideLocation

Historic Weather in Heide — Graph

°F

Heide temperature yesterday

Maximum temperature yesterday: 64 °F (at 3:20 PM)
Minimum temperature yesterday: 43 °F (at 2:20 AM)
Average temperature yesterday: 55 °F

Past Weeks' High & Low Weather Summary

 TemperatureHumidityPressure
High73 °F (May 11, 5:20 PM)100% (May 12, 3:20 AM)30.33 "Hg (May 12, 3:20 AM)
Low39 °F (May 20, 1:20 AM)41% (May 11, 5:20 PM)29.53 "Hg (May 18, 11:20 PM)
Average51 °F77%30.00 "Hg
* Reported May 8 12:20 PM — May 23 12:20 PM, Heide, Weather by CustomWeather, © 2015

Note: Actual official high and low records may vary slightly from our data, if they occured in-between our weather recording intervals... More about our weather records

Advertising

Heide weather history for previous 24 hours

 ConditionsComfort  
Time TempWeatherWind HumidityBarometerVisibility
12:20 PM
Sat, May 23
57 °FRefreshingly cool.9 mph59%30.15 "Hg2 mi
11:20 AM54 °FCool.8 mph63%30.18 "Hg2 mi
10:20 AM52 °FCool.8 mph67%30.18 "Hg2 mi
9:20 AM48 °FCool.8 mph82%30.15 "Hg2 mi
8:20 AM48 °FCool.9 mph87%30.15 "Hg2 mi
7:20 AM48 °FCool.7 mph94%30.12 "Hg2 mi
6:20 AM48 °FCool.9 mph94%30.12 "Hg2 mi
5:20 AM52 °FCool.7 mph94%30.09 "Hg1 mi
4:20 AM52 °FCool.8 mph94%30.12 "Hg1 mi
3:20 AM54 °FCool.9 mph88%30.12 "Hg2 mi
2:20 AM54 °FCool.10 mph82%30.12 "Hg2 mi
1:20 AM54 °FCool.8 mph82%30.12 "Hg2 mi
12:20 AM54 °FCool.7 mph82%30.12 "Hg2 mi
11:20 PM
Fri, May 22
54 °FCool.8 mph82%30.15 "Hg2 mi
10:20 PM54 °FCool.6 mph77%30.15 "Hg2 mi
9:20 PM55 °FCool.7 mph63%30.15 "Hg2 mi
8:20 PM57 °FRefreshingly cool.9 mph55%30.15 "Hg2 mi
7:20 PM61 °FRefreshingly cool.13 mph55%30.15 "Hg2 mi
6:20 PM63 °FMild.14 mph59%30.15 "Hg2 mi
5:20 PM64 °FPassing clouds.15 mph56%30.18 "HgN/A
4:20 PM64 °FPassing clouds.15 mph52%30.18 "HgN/A
3:20 PM64 °FPassing clouds.18 mph52%30.21 "HgN/A
2:20 PM63 °FPassing clouds.13 mph56%30.21 "HgN/A
Weather by CustomWeather, © 2015

See weather overviewHow to use our weather pages